Charlottesville, VA

3:46 AM EST on January 19, 2017 (GMT -0500)
Charlottesville-Albemarle

Weather History for KCHO - August, 2014

Change the Weather History Date:

Saturday, August 9, 2014

  Actual Average Record
Temperature  
Mean Temperature 70 °F 75 °F  
Max Temperature 78 °F 85 °F 105 °F (1930)
Min Temperature 62 °F 64 °F 50 °F (2002)
Degree Days  
Heating Degree Days 0 0  
Month to date heating degree days 0 0  
Since 1 June heating degree days 2 12  
Since 1 July heating degree days 0 1  
Cooling Degree Days 5 10  
Month to date cooling degree days 70 90  
Year to date cooling degree days 763 720  
Since 1 June cooling degree days 647 634  
Growing Degree Days 20 (Base 50)    
Moisture  
Dew Point 63 °F    
Average Humidity 82    
Maximum Humidity 100    
Minimum Humidity 64    
Precipitation  
Precipitation 0.00 in 0.14 in 1.02 in (2007)
Month to date precipitation 0.06 1.27  
Year to date precipitation 24.23 25.79  
Sea Level Pressure  
Sea Level Pressure 30.11 in    
Wind  
Wind Speed 4 mph (South)    
Max Wind Speed 10 mph    
Max Gust Speed 14 mph    
Visibility 8 miles    
Events      
T = Trace of Precipitation, MM = Missing Value Source: NWS Daily Summary

Daily Weather History Graph

Daily Weather History Graph

Search for Another Location

Airport or City:

Trip Planner

Search our weather history database for the weather conditions in past years. The results will help you decide how hot, cold, wet, or windy it might be!

Date:

Astronomy

Aug. 09, 2014 Rise Set
Actual Time 6:23 AM EDT 8:14 PM EDT
Civil Twilight 5:54 AM EDT 8:43 PM EDT
Nautical Twilight 5:20 AM EDT 9:17 PM EDT
Astronomical Twilight 4:42 AM EDT 9:54 PM EDT
Moon 7:14 PM EDT (8/9) 5:01 AM EDT (8/9)
Length of Visible Light 14h 48m
Length of Day
13h 51m
Waxing Gibbous, 98% of the Moon is Illuminated
Aug 9
Waxing Gibbous
Aug 10
Full
Aug 17
Last Quarter
Aug 25
New
Sep 2
First Quarter

Hourly Weather History & Observations

Time (EDT) Temp. Dew Point Humidity Pressure Visibility Wind Dir Wind Speed Gust Speed Precip Events Conditions
12:53 AM 68.0 °F 64.9 °F 90% 30.09 in 8.0 mi Calm Calm - N/A   Overcast
1:53 AM 69.1 °F 64.9 °F 87% 30.09 in 9.0 mi Calm Calm - N/A   Overcast
2:53 AM 69.1 °F 64.9 °F 87% 30.08 in 9.0 mi Calm Calm - N/A   Overcast
3:53 AM 64.9 °F 64.0 °F 97% 30.08 in 5.0 mi Calm Calm - N/A   Mostly Cloudy
4:45 AM 64.9 °F 63.0 °F 93% 30.10 in 1.8 mi Calm Calm - N/A   Clear
4:53 AM 64.9 °F 64.0 °F 97% 30.09 in 1.0 mi SW 3.5 mph - N/A   Clear
4:59 AM 66.0 °F 64.0 °F 93% 30.10 in 3.0 mi Calm Calm - N/A   Clear
5:53 AM 64.0 °F 63.0 °F 96% 30.09 in 4.0 mi Calm Calm - N/A   Scattered Clouds
6:36 AM 64.0 °F 63.0 °F 96% 30.10 in 1.0 mi Calm Calm - N/A   Partly Cloudy
6:50 AM 64.4 °F 64.4 °F 100% 30.11 in 4.0 mi Calm Calm - N/A   Clear
6:53 AM 64.9 °F 64.0 °F 97% 30.09 in 4.0 mi Calm Calm - N/A   Clear
7:53 AM 68.0 °F 66.0 °F 93% 30.11 in 5.0 mi Calm Calm - N/A   Scattered Clouds
8:53 AM 73.0 °F 64.9 °F 76% 30.12 in 6.0 mi Calm Calm - N/A   Haze
9:41 AM 73.0 °F 64.0 °F 73% 30.13 in 10.0 mi SSW 5.8 mph - N/A   Overcast
9:53 AM 73.0 °F 64.0 °F 73% 30.12 in 10.0 mi South 4.6 mph - N/A   Overcast
10:34 AM 73.9 °F 63.0 °F 68% 30.14 in 10.0 mi South 8.1 mph - N/A   Overcast
10:53 AM 73.9 °F 63.0 °F 68% 30.13 in 10.0 mi South 8.1 mph - N/A   Overcast
11:30 AM 73.9 °F 63.0 °F 68% 30.15 in 10.0 mi SSW 5.8 mph - N/A   Overcast
11:53 AM 75.0 °F 63.0 °F 66% 30.13 in 10.0 mi SSE 8.1 mph - N/A   Overcast
12:11 PM 75.9 °F 63.0 °F 64% 30.14 in 10.0 mi South 6.9 mph - N/A   Overcast
12:21 PM 75.0 °F 63.0 °F 66% 30.14 in 10.0 mi SSW 6.9 mph - N/A   Overcast
12:53 PM 75.9 °F 63.0 °F 64% 30.13 in 10.0 mi Variable 6.9 mph - N/A   Overcast
1:05 PM 77.0 °F 64.0 °F 64% 30.14 in 10.0 mi South 9.2 mph - N/A   Overcast
1:12 PM 77.0 °F 63.0 °F 62% 30.14 in 10.0 mi South 3.5 mph - N/A   Overcast
1:53 PM 75.9 °F 63.0 °F 64% 30.12 in 10.0 mi South 6.9 mph - N/A   Overcast
2:00 PM 75.9 °F 63.0 °F 64% 30.13 in 10.0 mi South 8.1 mph - N/A   Mostly Cloudy
2:53 PM 75.9 °F 63.0 °F 64% 30.11 in 10.0 mi South 8.1 mph - N/A   Mostly Cloudy
3:53 PM 77.0 °F 64.0 °F 64% 30.09 in 10.0 mi SSE 8.1 mph - N/A   Overcast
4:53 PM 75.9 °F 63.0 °F 64% 30.09 in 10.0 mi South 10.4 mph - N/A   Overcast
5:53 PM 75.9 °F 63.0 °F 64% 30.08 in 10.0 mi South 6.9 mph - N/A   Clear
6:53 PM 75.0 °F 63.0 °F 66% 30.08 in 10.0 mi SSW 9.2 mph - N/A   Partly Cloudy
7:53 PM 73.0 °F 62.1 °F 68% 30.09 in 10.0 mi SSW 4.6 mph - N/A   Clear
8:53 PM 69.1 °F 61.0 °F 75% 30.10 in 10.0 mi South 3.5 mph - N/A   Clear
9:53 PM 66.9 °F 62.1 °F 84% 30.12 in 10.0 mi South 4.6 mph - N/A   Clear